Regional Weather Roundup
Issued by NWS Binghamton, NY

Home | Current Version | Previous Version | Text Only | Print | Product List | Glossary On
Versions: 1 2 3 4 5 6 7 8 9 10 11 12 13 14 15 16 17 18 19 20 21 22 23 24 25 26 27 28 29 30 31 32 33 34 35 36 37 38 39 40 41 42 43 44 45 46 47 48 49
000
ASUS41 KBGM 260710
RWRBGM

REGIONAL WEATHER ROUNDUP
NATIONAL WEATHER SERVICE BINGHAMTON NY
300 AM EDT TUE JUL 26 2016

Note: "fair" indicates few or no clouds below 12,000 feet with no
significant weather and/or obstructions to visibility.

* = Station(s) that does not report precipitation, such as rain,
snow, etc, also no thunder or fog.

NYZ009-015>018-022>025-036-037-044>046-055>057-062-260800
...Central New York...

CITY           SKY/WX    TMP DP  RH WIND       PRES   REMARKS
Binghamton     FOG       67  66  97 W6        29.93F VSB 1/4
Cortland       FAIR      64  64 100 CALM      29.92S FOG
Dansville      CLEAR     68  65  90 CALM      29.92S
Elmira         CLOUDY    67  65  93 W3        29.92F
Ithaca         CLEAR     63  63 100 CALM      29.93S FOG
Hamilton       CLOUDY    64  63  94 CALM      29.90S VSB 1/2
Hornell        CLEAR     64  63  94 CALM      29.98S
Monticello     CLOUDY    64  64 100 W6        29.93S VSB 1
Norwich        CLEAR     66  66 100 CALM      29.91S
Oneonta        CLOUDY    66  66 100 W5        29.92F FOG
Penn Yan       PTCLDY    71  66  84 S7        29.92S
Rome           MOCLDY    68  68 100 NW3       29.87R
Sidney         CLOUDY    70  70 100 W3        29.91S
Syracuse       PTCLDY    69  69 100 W6        29.86S
$$

PAZ038>040-043-044-047-048-072-260800
...Northeast Pennsylvania...

CITY           SKY/WX    TMP DP  RH WIND       PRES   REMARKS
Hazleton       FOG       66  64  94 CALM      29.99S VSB 1/4
Scranton       PTCLDY    68  67  96 SW7       29.92F
$$
&&
KEY
WCI = Wind Chill Index
VSB = Visibility
HX  = Heat Index
$$



USA.gov is the U.S. government's official web portal to all federal, state and local government web resources and services.